Starlink 11381

operational
NORAD ID: 62094 Int'l Des: 2024-220 Owner: SPXS Country: US Constellation: starlink
LEOCIRCULAR

About Starlink 11381

Description loading...

Live Position

Loading 3D Globe...

Upcoming Passes

Altitude History

Altitude vs Time

uPlot chart will show altitude changes over time

Two-Line Element Set

1 62094U 24220G 25349.94865998 .00299511 00000-0 22315-2 0 9994
2 62094 42.9995 187.7695 0002617 283.2591 76.7985 15.71083968 61782
Epoch: Dec 15, 2025 • Age: 25 hours

Current Status

Altitude 358.1 km
Velocity 7.70 km/s
Sub-Earth Point 39.71°N, 141.36°W
Launch Date Nov 25, 2024
Age 1 years
Type internet

Technical Details

Classification Payload
Mass 960.00 kg
Dry Mass 910.00 kg
Total Mass 960.00 kg
Length 0.30 m
Diameter 4.10 m
Span 29.00 m
Shape Box + pan
Manufacturer SPXS
Bus Type Starlink V2MD
Phase Status In Orbit
Owner/State SPXS/US

Large Constellations

Loading constellations...